Missoula, MT

7:26 AM MST on December 05, 2016 (GMT -0700)
Missoula International

Weather History for KMSO - November, 2011

Change the Weather History Date:

Sunday, November 27, 2011

  Actual Average Record
Temperature  
Mean Temperature 35 °F 28 °F  
Max Temperature 51 °F 36 °F 57 °F (2014)
Min Temperature 18 °F 21 °F -8 °F (1967)
Degree Days  
Heating Degree Days 30 37  
Month to date heating degree days 929 842  
Since 1 July heating degree days 1655 1784  
Cooling Degree Days 0 0  
Month to date cooling degree days 0 0  
Year to date cooling degree days 290 332  
Moisture  
Dew Point 22 °F    
Average Humidity 71    
Maximum Humidity 92    
Minimum Humidity 50    
Precipitation  
Precipitation 0.00 in 0.03 in 0.44 in (1991)
Month to date precipitation 0.85 0.90  
Year to date precipitation 14.25 12.98  
Snow  
Snow 0.00 in - - ()
Month to date snowfall 4.3  
Year to date snowfall 47.2  
Since 1 July snowfall 4.3  
Snow Depth T in    
Sea Level Pressure  
Sea Level Pressure 30.32 in    
Wind  
Wind Speed 4 mph (WNW)    
Max Wind Speed 35 mph    
Max Gust Speed 45 mph    
Visibility 10 miles    
Events      
T = Trace of Precipitation, MM = Missing Value Source: NWS Daily Summary

Daily Weather History Graph

Daily Weather History Graph

Search for Another Location

Airport or City:

Trip Planner

Search our weather history database for the weather conditions in past years. The results will help you decide how hot, cold, wet, or windy it might be!

Date:

Astronomy

Nov. 27, 2011 Rise Set
Actual Time 7:55 AM MST 4:51 PM MST
Civil Twilight 7:21 AM MST 5:25 PM MST
Nautical Twilight 6:43 AM MST 6:03 PM MST
Astronomical Twilight 6:07 AM MST 6:40 PM MST
Moon 10:25 AM MST (11/27) 7:34 PM MST (11/27)
Length of Visible Light 10h 04m
Length of Day
8h 55m
Waxing Crescent, 9% of the Moon is Illuminated
Nov 27
Waxing Crescent
Dec 2
First Quarter
Dec 10
Full
Dec 17
Last Quarter
Dec 24
New

Hourly Weather History & Observations

Time (MST) Temp. Windchill Dew Point Humidity Pressure Visibility Wind Dir Wind Speed Gust Speed Precip Events Conditions
12:53 AM 23.0 °F 18.4 °F 17.1 °F 78% 30.55 in 10.0 mi NNW 3.5 mph - N/A   Clear
1:53 AM 21.9 °F - 16.0 °F 78% 30.53 in 10.0 mi Calm Calm - N/A   Clear
2:53 AM 21.0 °F - 16.0 °F 81% 30.52 in 10.0 mi Calm Calm - N/A   Clear
3:53 AM 21.0 °F - 16.0 °F 81% 30.49 in 10.0 mi Calm Calm - N/A   Clear
4:53 AM 19.9 °F - 15.1 °F 81% 30.47 in 10.0 mi Calm Calm - N/A   Clear
5:53 AM 19.9 °F - 15.1 °F 81% 30.47 in 10.0 mi Calm Calm - N/A   Clear
6:53 AM 19.0 °F - 16.0 °F 88% 30.47 in 10.0 mi Calm Calm - N/A   Clear
7:53 AM 18.0 °F - 15.1 °F 88% 30.46 in 10.0 mi Calm Calm - N/A   Clear
8:53 AM 21.9 °F - 17.1 °F 82% 30.44 in 10.0 mi Calm Calm - N/A   Clear
9:53 AM 24.8 °F - 19.4 °F 80% 30.29 in 10.0 mi Calm Calm - N/A   Clear
10:53 AM 28.0 °F - 19.9 °F 72% 30.38 in 10.0 mi Calm Calm - N/A   Clear
11:53 AM 30.9 °F - 19.9 °F 64% 30.32 in 10.0 mi Calm Calm - N/A   Clear
12:53 PM 34.0 °F - 21.9 °F 61% 30.26 in 10.0 mi Calm Calm - N/A   Clear
1:53 PM 37.0 °F - 23.0 °F 57% 30.22 in 10.0 mi Calm Calm - N/A   Clear
2:53 PM 37.0 °F 33.3 °F 24.1 °F 59% 30.19 in 10.0 mi WNW 4.6 mph - N/A   Clear
3:53 PM 35.1 °F - 24.1 °F 64% 30.19 in 10.0 mi Calm Calm - N/A   Clear
4:53 PM 32.0 °F - 24.1 °F 73% 30.20 in 10.0 mi Calm Calm - N/A   Clear
5:53 PM 32.0 °F - 25.0 °F 75% 30.17 in 10.0 mi Calm Calm - N/A   Clear
6:53 PM 30.9 °F - 25.0 °F 79% 30.16 in 10.0 mi Calm Calm - N/A   Clear
7:53 PM 30.9 °F 27.5 °F 26.1 °F 82% 30.15 in 10.0 mi South 3.5 mph - N/A   Clear
8:53 PM 48.9 °F - 30.0 °F 48% 30.12 in 10.0 mi West 27.6 mph 44.9 mph N/A   Clear
9:53 PM 48.9 °F - 30.9 °F 50% 30.14 in 10.0 mi West 18.4 mph 28.8 mph N/A   Scattered Clouds
10:53 PM 46.0 °F 40.6 °F 32.0 °F 58% 30.18 in 10.0 mi NNW 11.5 mph 20.7 mph N/A   Partly Cloudy
11:53 PM 45.0 °F 37.9 °F 32.0 °F 60% 30.22 in 10.0 mi NW 16.1 mph 23.0 mph N/A   Clear